When you browse on this site, cookies collect data to enhance your experience and personalize the content and advertising you see.
Visit our Privacy Policy to learn more. By continuing to use the site, you agree to this use of cookies and data.
  • în România
  • Lista ţărilor
  • Pe 7 zile
  • Temperatura apei
  • Hartă satelitară
  • Meteo pe hartă
  • Widget-uri
  • user-avatar
    Intrare

    Meteo pe oră la Trondheim

    Astăzi, 20 Mai, Luni

    Timp Temperatura Precipitaţii Vânt Presiune Umiditate
    00:00 +12°C° 0 mm 0 m/s 755 mmHg 81%
    01:00 +11°C° 0 mm 0 m/s 755 mmHg 84%
    02:00 +11°C° 0 mm 0 m/s 756 mmHg 85%
    03:00 +11°C° 0 mm 0 m/s 756 mmHg 86%
    04:00 +11°C° 0 mm 0 m/s 756 mmHg 87%
    05:00 +12°C° 0 mm 0 m/s 756 mmHg 80%
    06:00 +14°C° 0 mm 0 m/s 756 mmHg 74%
    07:00 +16°C° 0 mm 0 m/s 756 mmHg 67%
    08:00 +17°C° 0 mm 0 m/s 756 mmHg 61%
    09:00 +19°C° 0 mm 0 m/s 755 mmHg 56%
    10:00 +20°C° 0 mm 0 m/s 755 mmHg 51%
    11:00 +23°C° 0 mm 1 m/s 755 mmHg 49%
    12:00 +23°C° 0 mm 1 m/s 755 mmHg 47%
    13:00 +23°C° 0 mm 1 m/s 755 mmHg 45%
    14:00 +23°C° 0 mm 2 m/s 755 mmHg 45%
    15:00 +23°C° 0 mm 2 m/s 755 mmHg 45%
    16:00 +23°C° 0 mm 2 m/s 754 mmHg 45%
    17:00 +23°C° 0 mm 2 m/s 754 mmHg 48%
    18:00 +21°C° 0 mm 2 m/s 754 mmHg 51%
    19:00 +20°C° 0 mm 2 m/s 754 mmHg 54%
    20:00 +20°C° 0 mm 1 m/s 754 mmHg 59%
    21:00 +19°C° 0 mm 1 m/s 754 mmHg 65%
    22:00 +16°C° 0 mm 1 m/s 754 mmHg 70%
    23:00 +16°C° 0 mm 1 m/s 754 mmHg 71%

    Mâine, 21 Mai, Marţi

    Timp Temperatura Precipitaţii Vânt Presiune Umiditate
    00:00 +15°C° 0 mm 0 m/s 754 mmHg 72%
    01:00 +15°C° 0 mm 0 m/s 754 mmHg 73%
    02:00 +15°C° 0 mm 0 m/s 754 mmHg 74%
    03:00 +15°C° 0 mm 0 m/s 754 mmHg 75%
    04:00 +15°C° 0 mm 0 m/s 754 mmHg 76%
    05:00 +15°C° 0 mm 0 m/s 754 mmHg 75%
    06:00 +15°C° 0 mm 0 m/s 754 mmHg 73%
    07:00 +16°C° 0 mm 0 m/s 754 mmHg 72%
    08:00 +17°C° 0 mm 0 m/s 754 mmHg 68%
    09:00 +20°C° 0 mm 1 m/s 754 mmHg 63%
    10:00 +22°C° 0 mm 1 m/s 754 mmHg 59%
    11:00 +23°C° 0 mm 1 m/s 754 mmHg 56%
    12:00 +24°C° 0 mm 1 m/s 754 mmHg 52%
    13:00 +25°C° 0 mm 1 m/s 754 mmHg 49%
    14:00 +25°C° 0 mm 1 m/s 754 mmHg 50%
    15:00 +24°C° 0 mm 1 m/s 753 mmHg 51%
    16:00 +24°C° 0 mm 1 m/s 753 mmHg 51%
    17:00 +23°C° 0 mm 1 m/s 753 mmHg 54%
    18:00 +23°C° 0 mm 1 m/s 753 mmHg 58%
    19:00 +22°C° 0 mm 1 m/s 753 mmHg 61%
    20:00 +21°C° 0 mm 1 m/s 753 mmHg 66%
    21:00 +20°C° 0 mm 1 m/s 753 mmHg 71%
    22:00 +18°C° 0 mm 1 m/s 753 mmHg 75%
    23:00 +18°C° 0.3 mm 1 m/s 753 mmHg 79%

    Poimâine, 22 Mai, Miercuri

    Timp Temperatura Precipitaţii Vânt Presiune Umiditate
    00:00 +16°C° 0.3 mm 1 m/s 753 mmHg 82%
    01:00 +15°C° 0.3 mm 1 m/s 753 mmHg 86%
    02:00 +14°C° 0.1 mm 0 m/s 753 mmHg 87%
    03:00 +14°C° 0.1 mm 0 m/s 753 mmHg 88%
    04:00 +14°C° 0.1 mm 0 m/s 753 mmHg 89%
    05:00 +15°C° 0 mm 0 m/s 752 mmHg 84%
    06:00 +18°C° 0 mm 1 m/s 752 mmHg 78%
    07:00 +20°C° 0 mm 1 m/s 752 mmHg 73%
    08:00 +20°C° 0 mm 2 m/s 752 mmHg 68%
    09:00 +21°C° 0 mm 2 m/s 752 mmHg 62%
    10:00 +24°C° 0 mm 3 m/s 752 mmHg 56%
    11:00 +24°C° 0.1 mm 3 m/s 751 mmHg 54%
    12:00 +24°C° 0.1 mm 3 m/s 751 mmHg 52%
    13:00 +24°C° 0.1 mm 3 m/s 751 mmHg 50%
    14:00 +22°C° 0.1 mm 3 m/s 751 mmHg 54%
    15:00 +21°C° 0.1 mm 2 m/s 751 mmHg 58%
    16:00 +20°C° 0.1 mm 2 m/s 751 mmHg 61%
    17:00 +18°C° 0.5 mm 2 m/s 751 mmHg 69%
    18:00 +17°C° 0.5 mm 2 m/s 750 mmHg 76%
    19:00 +15°C° 0.5 mm 2 m/s 750 mmHg 84%
    20:00 +14°C° 1.5 mm 2 m/s 750 mmHg 87%
    21:00 +14°C° 1.5 mm 2 m/s 750 mmHg 91%
    22:00 +13°C° 1.5 mm 2 m/s 750 mmHg 94%
    23:00 +12°C° 1.8 mm 2 m/s 750 mmHg 94%

    23 Mai, Joi

    Timp Temperatura Precipitaţii Vânt Presiune Umiditate
    00:00 +12°C° 1.8 mm 2 m/s 750 mmHg 95%
    01:00 +12°C° 1.8 mm 2 m/s 750 mmHg 95%
    02:00 +12°C° 1.7 mm 2 m/s 749 mmHg 95%
    03:00 +12°C° 1.7 mm 1 m/s 749 mmHg 95%
    04:00 +12°C° 1.7 mm 1 m/s 749 mmHg 95%
    05:00 +12°C° 0.7 mm 2 m/s 749 mmHg 94%
    06:00 +13°C° 0.7 mm 2 m/s 749 mmHg 92%
    07:00 +13°C° 0.7 mm 2 m/s 749 mmHg 91%
    08:00 +13°C° 0.7 mm 2 m/s 749 mmHg 90%
    09:00 +13°C° 0.7 mm 2 m/s 749 mmHg 90%
    10:00 +13°C° 0.7 mm 2 m/s 749 mmHg 89%
    11:00 +14°C° 0.4 mm 2 m/s 749 mmHg 85%
    12:00 +15°C° 0.4 mm 2 m/s 749 mmHg 82%
    13:00 +15°C° 0.4 mm 2 m/s 749 mmHg 78%
    14:00 +14°C° 0.2 mm 3 m/s 749 mmHg 76%
    15:00 +14°C° 0.2 mm 3 m/s 749 mmHg 75%
    16:00 +14°C° 0.2 mm 3 m/s 749 mmHg 74%
    17:00 +14°C° 0 mm 3 m/s 749 mmHg 75%
    18:00 +14°C° 0 mm 3 m/s 749 mmHg 76%
    19:00 +14°C° 0 mm 2 m/s 749 mmHg 77%
    20:00 +13°C° 0 mm 2 m/s 749 mmHg 80%
    21:00 +13°C° 0 mm 2 m/s 749 mmHg 83%
    22:00 +12°C° 0 mm 2 m/s 749 mmHg 86%
    23:00 +10°C° 0 mm 2 m/s 750 mmHg 87%

    24 Mai, Vineri

    Timp Temperatura Precipitaţii Vânt Presiune Umiditate
    00:00 +10°C° 0 mm 2 m/s 750 mmHg 89%
    01:00 +10°C° 0 mm 1 m/s 750 mmHg 90%
    02:00 +10°C° 0 mm 1 m/s 750 mmHg 90%
    03:00 +10°C° 0 mm 1 m/s 750 mmHg 90%
    04:00 +10°C° 0 mm 1 m/s 750 mmHg 89%
    05:00 +10°C° 0 mm 2 m/s 750 mmHg 83%
    06:00 +12°C° 0 mm 2 m/s 750 mmHg 78%
    07:00 +13°C° 0 mm 2 m/s 750 mmHg 72%
    08:00 +13°C° 0 mm 3 m/s 750 mmHg 66%
    09:00 +14°C° 0 mm 3 m/s 751 mmHg 60%
    10:00 +16°C° 0 mm 3 m/s 751 mmHg 54%
    11:00 +17°C° 0 mm 3 m/s 751 mmHg 51%
    12:00 +17°C° 0 mm 3 m/s 751 mmHg 49%
    13:00 +18°C° 0 mm 3 m/s 751 mmHg 46%
    14:00 +18°C° 0 mm 3 m/s 751 mmHg 46%
    15:00 +18°C° 0 mm 4 m/s 751 mmHg 46%
    16:00 +18°C° 0 mm 4 m/s 751 mmHg 46%
    17:00 +17°C° 0 mm 4 m/s 751 mmHg 48%
    18:00 +17°C° 0 mm 4 m/s 751 mmHg 50%
    19:00 +15°C° 0 mm 4 m/s 751 mmHg 52%
    20:00 +14°C° 0 mm 4 m/s 751 mmHg 56%
    21:00 +12°C° 0 mm 3 m/s 751 mmHg 60%
    22:00 +11°C° 0 mm 3 m/s 751 mmHg 64%
    23:00 +10°C° 0 mm 3 m/s 752 mmHg 67%

    25 Mai, Sâmbătă

    Timp Temperatura Precipitaţii Vânt Presiune Umiditate
    00:00 +9°C° 0 mm 2 m/s 752 mmHg 69%
    01:00 +9°C° 0 mm 2 m/s 752 mmHg 72%
    02:00 +8°C° 0 mm 2 m/s 752 mmHg 73%
    03:00 +8°C° 0 mm 2 m/s 752 mmHg 74%
    04:00 +8°C° 0 mm 2 m/s 752 mmHg 74%
    05:00 +9°C° 0 mm 2 m/s 752 mmHg 68%
    06:00 +10°C° 0 mm 2 m/s 751 mmHg 61%
    07:00 +13°C° 0 mm 2 m/s 751 mmHg 55%
    08:00 +14°C° 0 mm 2 m/s 751 mmHg 50%
    09:00 +16°C° 0 mm 2 m/s 751 mmHg 45%
    10:00 +17°C° 0 mm 2 m/s 751 mmHg 40%
    11:00 +18°C° 0 mm 2 m/s 751 mmHg 38%
    12:00 +19°C° 0 mm 2 m/s 750 mmHg 37%
    13:00 +21°C° 0 mm 1 m/s 750 mmHg 36%
    14:00 +18°C° 0 mm 3 m/s 750 mmHg 47%
    15:00 +15°C° 0 mm 4 m/s 750 mmHg 58%
    16:00 +13°C° 0 mm 6 m/s 749 mmHg 68%
    17:00 +11°C° 0.2 mm 4 m/s 749 mmHg 74%
    18:00 +10°C° 0.2 mm 3 m/s 750 mmHg 80%
    19:00 +9°C° 0.2 mm 2 m/s 750 mmHg 86%
    20:00 +10°C° 0.5 mm 1 m/s 750 mmHg 88%
    21:00 +10°C° 0.5 mm 1 m/s 750 mmHg 90%
    22:00 +9°C° 0.5 mm 0 m/s 750 mmHg 91%
    23:00 +9°C° 0.2 mm 0 m/s 750 mmHg 92%
    Arată mai mult